Weather in Lampi

Greece     35°07′36″N   24°39′09″E
temp.,
°C
wind,
m/s
gust,
m/s
humid.,
%
clouds,
%
prec.,
mm/h
press.,
hPa
HPBL,
m
31 july, sat
sat3100:00+25n23290 0.0 101131
03:00+25n33340 0.0 101038
06:00+24n33370 0.0 100933
09:00+31n36210 0.0 1010790
12:00+34n58140 0.0 10102212
15:00+35n58140 0.0 10092324
18:00+34n46130 0.0 10091740
21:00+27n22180 0.0 101017
1 august, sun
sun100:00+27nw22190 0.0 101020
03:00+26n22200 0.0 101017
06:00+26nne22200 0.0 100912
09:00+33nnw22140 0.0 1010489
12:00+36n33120 0.0 10102511
15:00+37nne44120 0.0 10092559
18:00+35n34150 0.0 10101720
21:00+28nne22260 0.0 101120
2 august, mon
mon200:00+27n22240 0.0 101122
03:00+26nne33240 0.0 101127
06:00+25n32250 0.0 101126
09:00+32n36170 0.0 1011836
12:00+35n511140 0.0 10112193
15:00+35n511150 0.0 10102085
18:00+33n58200 0.0 10101159
21:00+27n33280 0.0 101140
3 august, tue
tue300:00+27n33260 0.0 101135
03:00+26n34280 0.0 101151
06:00+26nne34270 0.0 101139
09:00+33nne512170 0.0 10111135
12:00+36nne613140 0.0 10112147
15:00+37nne613140 0.0 10102355
18:00+35nne512130 0.0 10111689
21:00+29nne33220 0.0 101236
4 august, wed
wed400:00+28nne33210 0.0 101334
03:00+27nne44240 0.0 101257
06:00+26nne45270 0.0 101263
09:00+34nne59160 0.0 1012995
12:00+36nne610120 0.0 10121622
15:00+36nne68120 0.0 10121510
18:00+35nne46150 0.0 10121275
21:00+28nne33250 0.0 101324